INTELSAT 33E DEB, 61999

Orbit data source: Space-Track

INTELSAT 33E DEB, 61999 is space debris in GEO originally from a launch on Wed, 24 Aug 2016 UTC launched from the French Guiana (FRGUI). Debris objects in space refer to the collection of defunct objects orbiting the Earth. Examples of debris include non-operational satellites, rocket bodies, and fragments generated from explosions, collisions, or faulty payload assembly.

Not visible in the next 10 days
Identifier
61999, 2016-053R
Orbit
GEO
Country
Flag of USUS / ITSO
Related business
Manufacturer
Boeing/ES
Mission
Spacecraft
Bus & Motor
Unknown
Mass
Unknown
Launch date (UTC)
2016-08-24 (10 years ago)
Launch vehicle
Unknown
Launch site
French Guiana (FRGUI)
Object type
Payload
Rocket body
Debris
Shape & HBR
Unknown shape, 1.1 m
Radar Cross Section
RCS unknown

Expand to show TLE details & history
Last TLE update: 14 hours ago

TLE from 14 hours ago
0 INTELSAT 33E DEB
1 61999U 16053R   26121.10853221 -.00000142  00000-0  00000+0 0  9990
2 61999   1.3884  76.6904 0115476  33.2127 327.4451  0.99261674  5559
Epoch: 2026-05-01T02:36Z
TLE epoch observation values (Epoch: 2026-05-01T02:36:17.182Z)
Latitude
-0.00001°
Longitude
178.51447°
Altitude
35,661.093 km
Speed
3.094 km/s
True Right ascension
05h 06m 31s
True Declination
0° 00' 00"
Sunlit
Object was in daylight at epoch
Visualization orbit readout
Latitude
Unknown
Longitude
Unknown
Altitude
Unknown
Speed
Unknown
Apparent Right ascension
Unknown
Apparent Declination
Unknown
Sunlit
N/A
Visualization observer readout
Local Sidereal Time
00:08:46
Azimuth
Unknown
Elevation
Unknown
Doppler factor
Unknown
Orbital elements
Apogee altitude
36,563.439 km
Perigee altitude
35,583.016 km
Semi-major axis
42,451.364 km
Eccentricity
0.01155
Inclination
1.3884°
RAAN
76.6904°
Arg. of periapsis
33.2127°
True anomaly
326.7243°
Mean anomaly
327.4451°
Eccentric anomaly
327.08558°
Mean motion
0.24815 °/min
Orbital period
1,450.76 mins
BSTAR
0
Loading maneuver chart data...
Computing Atmospheric mass density...
Loading historical data...
Loading historical data...
Loading historical data...
Loading historical data...
Loading historical data...
Loading historical data...
Loading historical data...

Documentation

Showing up to 5 results
|